Location: ???????
(55.4362°N, 38.1183°E)
Time: 20:25:15
(UTC+00:00)

M-CUBED/EXP-1 PRIME - Pass Details

Date: 13 December 2021
Orbit: 426 x 650 km, 101.7° (Epoch: 26 January)

Event Time Altitude Azimuth Distance (km) Brightness Sun altitude
Rises 03:52:53 0° 31° (NNE) 2,964 ? -14.7°
Reaches altitude 10° 03:55:44 10° 50° (NE) 2,024 ? -14.3°
Maximum altitude 03:58:50 19° 94° (E) 1,498 ? -13.9°
Drops below altitude 10° 04:01:50 10° 140° (SE) 1,939 ? -13.5°
Sets 04:04:28 0° 159° (SSE) 2,792 ? -13.1°
